Time,TemperatureF,DewpointF,PressureIn,WindDirection,WindDirectionDegrees,WindSpeedMPH,WindSpeedGustMPH,Humidity,HourlyPrecipIn,Conditions,Clouds,dailyrainin,SoftwareType,DateUTC
2013-03-20 00:03:00,63.0,-99.9,30.00,NNE,20,6.0,8.0,-999,-99.99,,,-99.99,,2013-03-20 05:03:00,
2013-03-20 00:13:00,63.0,-99.9,30.00,North,-999,-999.0,-999.0,-999,-99.99,,,-99.99,,2013-03-20 05:13:00,
2013-03-20 00:23:00,63.0,-99.9,30.00,NNE,15,7.0,9.0,-999,-99.99,,,-99.99,,2013-03-20 05:23:00,
2013-03-20 00:33:00,63.0,-99.9,29.99,NNE,26,6.0,8.0,-999,-99.99,,,-99.99,,2013-03-20 05:33:00,
2013-03-20 00:43:00,63.0,-99.9,29.98,NE,41,6.0,7.0,-999,-99.99,,,-99.99,,2013-03-20 05:43:00,
2013-03-20 00:53:00,63.0,-99.9,29.98,NNE,31,6.0,8.0,-999,-99.99,,,-99.99,,2013-03-20 05:53:00,
2013-03-20 01:03:00,63.0,-99.9,29.98,NNE,14,8.0,11.0,-999,-99.99,,,-99.99,,2013-03-20 06:03:00,
2013-03-20 01:13:00,62.0,-99.9,29.98,North,-999,-999.0,-999.0,-999,-99.99,,,-99.99,,2013-03-20 06:13:00,
2013-03-20 01:22:00,62.0,-99.9,29.98,NNE,13,9.0,13.0,-999,-99.99,,,-99.99,,2013-03-20 06:22:00,
2013-03-20 01:32:00,62.0,-99.9,29.98,North,-999,-999.0,-999.0,-999,-99.99,,,-99.99,,2013-03-20 06:32:00,
2013-03-20 01:43:00,62.0,-99.9,29.98,NNE,32,9.0,13.0,-999,-99.99,,,-99.99,,2013-03-20 06:43:00,
2013-03-20 01:53:00,62.0,-99.9,29.98,NE,39,9.0,11.0,-999,-99.99,,,-99.99,,2013-03-20 06:53:00,
2013-03-20 02:02:00,62.0,-99.9,29.98,NE,41,9.0,12.0,-999,-99.99,,,-99.99,,2013-03-20 07:02:00,
2013-03-20 02:12:00,62.0,-99.9,29.98,NNE,25,11.0,14.0,-999,-99.99,,,-99.99,,2013-03-20 07:12:00,
2013-03-20 02:22:00,61.0,-99.9,29.98,NNE,19,7.0,11.0,-999,-99.99,,,-99.99,,2013-03-20 07:22:00,
2013-03-20 02:32:00,61.0,-99.9,29.98,NNE,12,7.0,9.0,-999,-99.99,,,-99.99,,2013-03-20 07:32:00,
2013-03-20 02:42:00,60.0,-99.9,29.98,NNE,13,9.0,11.0,-999,-99.99,,,-99.99,,2013-03-20 07:42:00,
2013-03-20 02:52:00,60.0,-99.9,29.98,North,11,10.0,13.0,-999,-99.99,,,-99.99,,2013-03-20 07:52:00,
2013-03-20 03:02:00,60.0,-99.9,29.98,North,10,12.0,15.0,-999,-99.99,,,-99.99,,2013-03-20 08:02:00,
2013-03-20 03:13:00,60.0,-99.9,29.98,NNE,14,9.0,13.0,-999,-99.99,,,-99.99,,2013-03-20 08:13:00,
2013-03-20 03:22:00,60.0,-99.9,29.98,NNE,15,10.0,13.0,-999,-99.99,,,-99.99,,2013-03-20 08:22:00,
2013-03-20 03:32:00,60.0,-99.9,29.98,NNE,19,10.0,14.0,-999,-99.99,,,-99.99,,2013-03-20 08:32:00,
2013-03-20 03:43:00,60.0,-99.9,29.97,NNE,24,10.0,14.0,-999,-99.99,,,-99.99,,2013-03-20 08:43:00,
2013-03-20 03:52:00,60.0,-99.9,29.97,NNE,30,11.0,17.0,-999,-99.99,,,-99.99,,2013-03-20 08:52:00,
2013-03-20 04:02:00,60.0,-99.9,29.97,NE,35,13.0,16.0,-999,-99.99,,,-99.99,,2013-03-20 09:02:00,
2013-03-20 04:12:00,60.0,-99.9,29.96,NE,43,9.0,13.0,-999,-99.99,,,-99.99,,2013-03-20 09:12:00,
2013-03-20 04:22:00,60.0,-99.9,29.96,NE,42,8.0,11.0,-999,-99.99,,,-99.99,,2013-03-20 09:22:00,
2013-03-20 04:33:00,60.0,-99.9,29.96,NNE,27,11.0,13.0,-999,-99.99,,,-99.99,,2013-03-20 09:33:00,
2013-03-20 04:43:00,60.0,-99.9,29.96,NNE,14,9.0,12.0,-999,-99.99,,,-99.99,,2013-03-20 09:43:00,
2013-03-20 04:53:00,60.0,-99.9,29.97,North,11,10.0,13.0,-999,-99.99,,,-99.99,,2013-03-20 09:53:00,
2013-03-20 05:03:00,60.0,-99.9,29.97,North,8,11.0,14.0,-999,-99.99,,,-99.99,,2013-03-20 10:03:00,
2013-03-20 05:13:00,59.0,-99.9,29.97,North,11,11.0,17.0,-999,-99.99,,,-99.99,,2013-03-20 10:13:00,
2013-03-20 05:23:00,59.0,-99.9,29.98,NNE,12,11.0,13.0,-999,-99.99,,,-99.99,,2013-03-20 10:23:00,
2013-03-20 05:33:00,59.0,-99.9,29.98,NNE,12,11.0,14.0,-999,-99.99,,,-99.99,,2013-03-20 10:33:00,
2013-03-20 05:43:00,59.0,-99.9,30.00,North,6,12.0,16.0,-999,-99.99,,,-99.99,,2013-03-20 10:43:00,
2013-03-20 05:53:00,59.0,-99.9,30.01,North,6,13.0,17.0,-999,-99.99,,,-99.99,,2013-03-20 10:53:00,
2013-03-20 06:03:00,59.0,-99.9,30.01,North,4,15.0,18.0,-999,-99.99,,,-99.99,,2013-03-20 11:03:00,
2013-03-20 06:12:00,59.0,-99.9,30.01,NNE,15,12.0,16.0,-999,-99.99,,,-99.99,,2013-03-20 11:12:00,
2013-03-20 06:23:00,58.0,-99.9,30.01,NNE,22,11.0,17.0,-999,-99.99,,,-99.99,,2013-03-20 11:23:00,
2013-03-20 06:32:00,58.0,-99.9,30.01,NNE,17,11.0,16.0,-999,-99.99,,,-99.99,,2013-03-20 11:32:00,
2013-03-20 06:43:00,58.0,-99.9,30.03,North,3,14.0,18.0,-999,-99.99,,,-99.99,,2013-03-20 11:43:00,
2013-03-20 06:52:00,58.0,-99.9,30.04,North,10,14.0,19.0,-999,-99.99,,,-99.99,,2013-03-20 11:52:00,
2013-03-20 07:02:00,58.0,-99.9,30.05,North,8,14.0,18.0,-999,-99.99,,,-99.99,,2013-03-20 12:02:00,
2013-03-20 07:13:00,58.0,-99.9,30.05,North,4,13.0,19.0,-999,-99.99,,,-99.99,,2013-03-20 12:13:00,
2013-03-20 07:22:00,58.0,-99.9,30.05,NNE,13,13.0,17.0,-999,-99.99,,,-99.99,,2013-03-20 12:22:00,
2013-03-20 07:33:00,58.0,-99.9,30.05,NNE,13,14.0,21.0,-999,-99.99,,,-99.99,,2013-03-20 12:33:00,
2013-03-20 07:43:00,58.0,-99.9,30.05,NNE,12,14.0,19.0,-999,-99.99,,,-99.99,,2013-03-20 12:43:00,
2013-03-20 07:53:00,58.0,-99.9,30.06,NNE,16,13.0,18.0,-999,-99.99,,,-99.99,,2013-03-20 12:53:00,
2013-03-20 08:03:00,58.0,-99.9,30.07,North,6,14.0,18.0,-999,-99.99,,,-99.99,,2013-03-20 13:03:00,
2013-03-20 08:13:00,57.0,-99.9,30.08,NNE,18,13.0,18.0,-999,-99.99,,,-99.99,,2013-03-20 13:13:00,
2013-03-20 08:22:00,57.0,-99.9,30.09,North,11,12.0,16.0,-999,-99.99,,,-99.99,,2013-03-20 13:22:00,
2013-03-20 08:32:00,57.0,-99.9,30.08,NNE,12,15.0,19.0,-999,-99.99,,,-99.99,,2013-03-20 13:32:00,
2013-03-20 08:43:00,57.0,-99.9,30.07,NNE,20,17.0,23.0,-999,-99.99,,,-99.99,,2013-03-20 13:43:00,
2013-03-20 08:53:00,57.0,-99.9,30.07,NNE,25,13.0,17.0,-999,-99.99,,,-99.99,,2013-03-20 13:53:00,
2013-03-20 09:03:00,57.0,-99.9,30.08,NNE,18,13.0,19.0,-999,-99.99,,,-99.99,,2013-03-20 14:03:00,
2013-03-20 09:12:00,57.0,-99.9,30.07,NNE,14,12.0,17.0,-999,-99.99,,,-99.99,,2013-03-20 14:12:00,
2013-03-20 09:23:00,58.0,-99.9,30.08,NNE,19,12.0,19.0,-999,-99.99,,,-99.99,,2013-03-20 14:23:00,
2013-03-20 09:34:00,58.0,-99.9,30.08,NNE,27,14.0,20.0,-999,-99.99,,,-99.99,,2013-03-20 14:34:00,
2013-03-20 09:43:00,59.0,-99.9,30.08,NNE,12,13.0,18.0,-999,-99.99,,,-99.99,,2013-03-20 14:43:00,
2013-03-20 09:53:00,59.0,-99.9,30.09,NNE,20,11.0,15.0,-999,-99.99,,,-99.99,,2013-03-20 14:53:00,
2013-03-20 10:03:00,58.0,-99.9,30.09,North,7,12.0,18.0,-999,-99.99,,,-99.99,,2013-03-20 15:03:00,
2013-03-20 10:13:00,58.0,-99.9,30.09,NNE,19,6.0,11.0,-999,-99.99,,,-99.99,,2013-03-20 15:13:00,
2013-03-20 10:22:00,59.0,-99.9,30.09,NE,42,7.0,10.0,-999,-99.99,,,-99.99,,2013-03-20 15:22:00,
2013-03-20 10:34:00,59.0,-99.9,30.09,NE,49,9.0,13.0,-999,-99.99,,,-99.99,,2013-03-20 15:34:00,
2013-03-20 10:44:00,59.0,-99.9,30.10,NE,47,7.0,10.0,-999,-99.99,,,-99.99,,2013-03-20 15:44:00,
2013-03-20 10:53:00,59.0,-99.9,30.09,North,10,9.0,12.0,-999,-99.99,,,-99.99,,2013-03-20 15:53:00,
2013-03-20 11:03:00,59.0,-99.9,30.09,NNE,19,8.0,11.0,-999,-99.99,,,-99.99,,2013-03-20 16:03:00,
2013-03-20 11:13:00,59.0,-99.9,30.09,North,6,8.0,12.0,-999,-99.99,,,-99.99,,2013-03-20 16:13:00,
2013-03-20 11:23:00,59.0,-99.9,30.09,North,357,11.0,14.0,-999,-99.99,,,-99.99,,2013-03-20 16:23:00,
2013-03-20 11:33:00,59.0,-99.9,30.10,North,353,9.0,12.0,-999,-99.99,,,-99.99,,2013-03-20 16:33:00,
2013-03-20 11:43:00,58.0,-99.9,30.11,North,357,6.0,10.0,-999,-99.99,,,-99.99,,2013-03-20 16:43:00,
2013-03-20 11:53:00,58.0,-99.9,30.11,NNE,12,4.0,5.0,-999,-99.99,,,-99.99,,2013-03-20 16:53:00,
2013-03-20 12:03:00,58.0,-99.9,30.11,NNE,31,2.0,3.0,-999,-99.99,,,-99.99,,2013-03-20 17:03:00,
2013-03-20 12:12:00,58.0,-99.9,30.10,NNE,20,2.0,3.0,-999,-99.99,,,-99.99,,2013-03-20 17:12:00,
2013-03-20 12:22:00,58.0,-99.9,30.09,South,180,5.0,7.0,-999,-99.99,,,-99.99,,2013-03-20 17:22:00,
2013-03-20 12:33:00,58.0,-99.9,30.09,East,100,1.0,3.0,-999,-99.99,,,-99.99,,2013-03-20 17:33:00,
2013-03-20 12:42:00,58.0,-99.9,30.09,NNW,332,8.0,10.0,-999,-99.99,,,-99.99,,2013-03-20 17:42:00,
2013-03-20 12:53:00,57.0,-99.9,30.08,North,353,8.0,11.0,-999,-99.99,,,-99.99,,2013-03-20 17:53:00,
2013-03-20 13:02:00,57.0,-99.9,30.08,North,353,8.0,11.0,-999,-99.99,,,-99.99,,2013-03-20 18:02:00,
2013-03-20 13:12:00,57.0,-99.9,30.07,NNW,331,7.0,9.0,-999,-99.99,,,-99.99,,2013-03-20 18:12:00,
2013-03-20 13:22:00,57.0,-99.9,30.08,NNW,339,9.0,12.0,-999,-99.99,,,-99.99,,2013-03-20 18:22:00,
2013-03-20 13:34:00,57.0,-99.9,30.09,NNW,337,11.0,13.0,-999,-99.99,,,-99.99,,2013-03-20 18:34:00,
2013-03-20 13:43:00,58.0,-99.9,30.08,NNW,343,11.0,15.0,-999,-99.99,,,-99.99,,2013-03-20 18:43:00,
2013-03-20 13:53:00,58.0,-99.9,30.08,NNW,339,10.0,13.0,-999,-99.99,,,-99.99,,2013-03-20 18:53:00,
2013-03-20 14:02:00,59.0,-99.9,30.08,NNW,337,11.0,15.0,-999,-99.99,,,-99.99,,2013-03-20 19:02:00,
2013-03-20 14:12:00,60.0,-99.9,30.07,NNW,338,10.0,13.0,-999,-99.99,,,-99.99,,2013-03-20 19:12:00,
2013-03-20 14:23:00,60.0,-99.9,30.06,NNW,337,13.0,16.0,-999,-99.99,,,-99.99,,2013-03-20 19:23:00,
2013-03-20 14:33:00,60.0,-99.9,30.05,NNW,347,13.0,17.0,-999,-99.99,,,-99.99,,2013-03-20 19:33:00,
2013-03-20 14:42:00,60.0,-99.9,30.04,North,350,13.0,18.0,-999,-99.99,,,-99.99,,2013-03-20 19:42:00,
2013-03-20 14:53:00,61.0,-99.9,30.04,North,353,13.0,17.0,-999,-99.99,,,-99.99,,2013-03-20 19:53:00,
2013-03-20 15:02:00,62.0,-99.9,30.04,North,349,11.0,16.0,-999,-99.99,,,-99.99,,2013-03-20 20:02:00,
2013-03-20 15:13:00,62.0,-99.9,30.04,NNW,339,13.0,17.0,-999,-99.99,,,-99.99,,2013-03-20 20:13:00,
2013-03-20 15:23:00,63.0,-99.9,30.03,NNW,348,14.0,20.0,-999,-99.99,,,-99.99,,2013-03-20 20:23:00,
2013-03-20 15:32:00,64.0,-99.9,30.03,North,353,14.0,18.0,-999,-99.99,,,-99.99,,2013-03-20 20:32:00,
2013-03-20 15:43:00,64.0,-99.9,30.03,North,359,12.0,15.0,-999,-99.99,,,-99.99,,2013-03-20 20:43:00,
2013-03-20 15:53:00,65.0,-99.9,30.02,North,350,13.0,17.0,-999,-99.99,,,-99.99,,2013-03-20 20:53:00,
2013-03-20 16:02:00,65.0,-99.9,30.02,NNW,345,16.0,20.0,-999,-99.99,,,-99.99,,2013-03-20 21:02:00,
2013-03-20 16:12:00,64.0,-99.9,30.01,North,357,15.0,21.0,-999,-99.99,,,-99.99,,2013-03-20 21:12:00,
2013-03-20 16:23:00,65.0,-99.9,30.01,North,354,14.0,18.0,-999,-99.99,,,-99.99,,2013-03-20 21:23:00,
2013-03-20 16:33:00,65.0,-99.9,30.01,NNW,346,17.0,21.0,-999,-99.99,,,-99.99,,2013-03-20 21:33:00,
2013-03-20 16:42:00,65.0,-99.9,30.00,NNW,342,16.0,23.0,-999,-99.99,,,-99.99,,2013-03-20 21:42:00,
2013-03-20 16:53:00,66.0,-99.9,30.00,North,355,14.0,19.0,-999,-99.99,,,-99.99,,2013-03-20 21:53:00,
2013-03-20 17:03:00,66.0,-99.9,30.00,NNW,346,14.0,21.0,-999,-99.99,,,-99.99,,2013-03-20 22:03:00,
2013-03-20 17:13:00,65.0,-99.9,30.00,North,5,17.0,21.0,-999,-99.99,,,-99.99,,2013-03-20 22:13:00,
2013-03-20 17:23:00,65.0,-99.9,29.99,North,349,14.0,20.0,-999,-99.99,,,-99.99,,2013-03-20 22:23:00,
2013-03-20 17:33:00,65.0,-99.9,29.99,North,357,12.0,17.0,-999,-99.99,,,-99.99,,2013-03-20 22:33:00,
2013-03-20 17:43:00,65.0,-99.9,29.99,North,9,13.0,18.0,-999,-99.99,,,-99.99,,2013-03-20 22:43:00,
2013-03-20 17:53:00,66.0,-99.9,29.99,North,352,14.0,18.0,-999,-99.99,,,-99.99,,2013-03-20 22:53:00,
2013-03-20 18:03:00,65.0,-99.9,29.99,NNW,345,14.0,20.0,-999,-99.99,,,-99.99,,2013-03-20 23:03:00,
2013-03-20 18:12:00,65.0,-99.9,29.99,North,355,12.0,16.0,-999,-99.99,,,-99.99,,2013-03-20 23:12:00,
2013-03-20 18:23:00,65.0,-99.9,29.99,NNW,347,12.0,17.0,-999,-99.99,,,-99.99,,2013-03-20 23:23:00,
2013-03-20 18:33:00,65.0,-99.9,29.99,North,357,12.0,16.0,-999,-99.99,,,-99.99,,2013-03-20 23:33:00,
2013-03-20 18:43:00,65.0,-99.9,30.00,North,353,13.0,17.0,-999,-99.99,,,-99.99,,2013-03-20 23:43:00,
2013-03-20 18:53:00,64.0,-99.9,30.00,North,353,13.0,17.0,-999,-99.99,,,-99.99,,2013-03-20 23:53:00,
2013-03-20 19:03:00,64.0,-99.9,30.00,North,352,11.0,15.0,-999,-99.99,,,-99.99,,2013-03-21 00:03:00,
2013-03-20 19:13:00,63.0,-99.9,30.00,North,353,12.0,15.0,-999,-99.99,,,-99.99,,2013-03-21 00:13:00,
2013-03-20 19:23:00,63.0,-99.9,30.00,North,352,10.0,14.0,-999,-99.99,,,-99.99,,2013-03-21 00:23:00,
2013-03-20 19:33:00,62.0,-99.9,30.01,North,352,11.0,14.0,-999,-99.99,,,-99.99,,2013-03-21 00:33:00,
2013-03-20 19:42:00,61.0,-99.9,30.01,NNW,342,8.0,10.0,-999,-99.99,,,-99.99,,2013-03-21 00:42:00,
2013-03-20 19:53:00,60.0,-99.9,30.01,NNW,343,8.0,10.0,-999,-99.99,,,-99.99,,2013-03-21 00:53:00,
2013-03-20 20:02:00,60.0,-99.9,30.01,NNW,341,8.0,10.0,-999,-99.99,,,-99.99,,2013-03-21 01:02:00,
2013-03-20 20:12:00,59.0,-99.9,30.02,NNW,332,6.0,8.0,-999,-99.99,,,-99.99,,2013-03-21 01:12:00,
2013-03-20 20:22:00,59.0,-99.9,30.02,NNW,333,6.0,7.0,-999,-99.99,,,-99.99,,2013-03-21 01:22:00,
2013-03-20 20:33:00,59.0,-99.9,30.03,NNW,338,6.0,7.0,-999,-99.99,,,-99.99,,2013-03-21 01:33:00,
2013-03-20 20:42:00,58.0,-99.9,30.03,NNW,337,4.0,5.0,-999,-99.99,,,-99.99,,2013-03-21 01:42:00,
2013-03-20 20:53:00,57.0,-99.9,30.03,NNW,333,4.0,4.0,-999,-99.99,,,-99.99,,2013-03-21 01:53:00,
2013-03-20 21:03:00,57.0,-99.9,30.03,NNW,337,4.0,4.0,-999,-99.99,,,-99.99,,2013-03-21 02:03:00,
2013-03-20 21:13:00,56.0,-99.9,30.03,NW,314,3.0,3.0,-999,-99.99,,,-99.99,,2013-03-21 02:13:00,
2013-03-20 21:23:00,56.0,-99.9,30.03,NNW,345,3.0,3.0,-999,-99.99,,,-99.99,,2013-03-21 02:23:00,
2013-03-20 21:33:00,56.0,-99.9,30.04,NW,326,2.0,4.0,-999,-99.99,,,-99.99,,2013-03-21 02:33:00,
2013-03-20 21:42:00,56.0,-99.9,30.04,NW,326,2.0,4.0,-999,-99.99,,,-99.99,,2013-03-21 02:42:00,
2013-03-20 21:52:00,56.0,-99.9,30.04,NW,326,2.0,4.0,-999,-99.99,,,-99.99,,2013-03-21 02:52:00,
2013-03-20 22:02:00,55.0,-99.9,30.03,NW,322,3.0,3.0,-999,-99.99,,,-99.99,,2013-03-21 03:02:00,
2013-03-20 22:12:00,55.0,-99.9,30.03,NW,322,2.0,3.0,-999,-99.99,,,-99.99,,2013-03-21 03:12:00,
2013-03-20 22:22:00,55.0,-99.9,30.03,NW,312,3.0,3.0,-999,-99.99,,,-99.99,,2013-03-21 03:22:00,
2013-03-20 22:33:00,55.0,-99.9,30.03,NW,308,3.0,3.0,-999,-99.99,,,-99.99,,2013-03-21 03:33:00,
2013-03-20 22:43:00,54.0,-99.9,30.03,NNW,339,2.0,3.0,-999,-99.99,,,-99.99,,2013-03-21 03:43:00,
2013-03-20 22:53:00,53.0,-99.9,30.03,NW,321,3.0,3.0,-999,-99.99,,,-99.99,,2013-03-21 03:53:00,
2013-03-20 23:03:00,53.0,-99.9,30.03,NW,321,3.0,3.0,-999,-99.99,,,-99.99,,2013-03-21 04:03:00,
2013-03-20 23:13:00,53.0,-99.9,30.03,NW,314,4.0,4.0,-999,-99.99,,,-99.99,,2013-03-21 04:13:00,
2013-03-20 23:23:00,52.0,-99.9,30.04,NNW,328,4.0,6.0,-999,-99.99,,,-99.99,,2013-03-21 04:23:00,
2013-03-20 23:33:00,52.0,-99.9,30.04,NNW,328,5.0,7.0,-999,-99.99,,,-99.99,,2013-03-21 04:33:00,
2013-03-20 23:43:00,53.0,-99.9,30.05,NNW,333,6.0,9.0,-999,-99.99,,,-99.99,,2013-03-21 04:43:00,
2013-03-20 23:53:00,53.0,-99.9,30.05,NNW,341,9.0,11.0,-999,-99.99,,,-99.99,,2013-03-21 04:53:00,